This is the latest recevied weather packets stored in our database for station/object NA9VY-8. If no packets are shown the sender has not sent any weather packets the latest 1 day(s).
| Time | Temp. | Humidity | Pressure | Rain* | Wind** | Luminosity | Snow |
|---|---|---|---|---|---|---|---|
| 1778047106 | 8.33° C | 99% | 1012.4 hPa | 3.56 mm | - | 0 W/m² | - |
| 1778046803 | 8.33° C | 99% | 1012.6 hPa | 4.32 mm | - | 0 W/m² | - |
| 1778046500 | 8.33° C | 99% | 1012.8 hPa | 3.56 mm | - | 0 W/m² | - |
| 1778046196 | 8.33° C | 99% | 1012.7 hPa | 2.29 mm | - | 0 W/m² | - |
| 1778045893 | 8.33° C | 99% | 1012.6 hPa | 1.78 mm | - | 0 W/m² | - |
| 1778045592 | 8.33° C | 99% | 1012.5 hPa | 0.51 mm | - | 0 W/m² | - |
| 1778044988 | 8.33° C | 99% | 1012 hPa | 0.51 mm | - | 0 W/m² | - |
| 1778044685 | 8.33° C | 99% | 1011.8 hPa | 0.51 mm | - | 0 W/m² | - |
| 1778044381 | 8.33° C | 99% | 1011.5 hPa | 0.51 mm | - | 0 W/m² | - |
| 1778044079 | 8.33° C | 99% | 1011.5 hPa | 1.27 mm | - | 0 W/m² | - |
| 1778043776 | 8.33° C | 99% | 1011.3 hPa | 1.27 mm | - | 0 W/m² | - |
| 1778043472 | 8.33° C | 99% | 1012 hPa | 2.29 mm | - | 0 W/m² | - |
| 1778042866 | 8.33° C | 99% | 1011.8 hPa | 3.05 mm | - | 0 W/m² | - |
| 1778042564 | 8.33° C | 99% | 1011.6 hPa | 3.56 mm | - | 0 W/m² | - |
| 1778042261 | 8.89° C | 99% | 1011.8 hPa | 2.29 mm | - | 0 W/m² | - |
| 1778041657 | 8.33° C | 99% | 1011.4 hPa | 1.78 mm | - | 0 W/m² | - |
| 1778040750 | 8.89° C | 99% | 1011 hPa | 1.78 mm | - | 0 W/m² | - |
| 1778040448 | 8.89° C | 99% | 1011.1 hPa | 3.56 mm | - | 0 W/m² | - |
| 1778039841 | 8.89° C | 99% | 1011.2 hPa | 5.33 mm | - | 0 W/m² | - |
| 1778039235 | 8.89° C | 99% | 1011.9 hPa | 6.1 mm | - | 0 W/m² | - |
| 1778038932 | 8.89° C | 99% | 1011.8 hPa | 6.1 mm | - | 0 W/m² | - |
| 1778038023 | 8.89° C | 99% | 1011.7 hPa | 8.38 mm | - | 0 W/m² | - |
| 1778037417 | 8.89° C | 99% | 1010.9 hPa | 4.83 mm | - | 0 W/m² | - |
| 1778037114 | 8.89° C | 99% | 1010.9 hPa | 2.29 mm | - | 0 W/m² | - |
| 1778036813 | 8.89° C | 99% | 1010.9 hPa | 1.27 mm | - | 0 W/m² | - |
* Rain latest hour (hover to see other rain measurements)
** Current wind speed in m/s (hover to see current wind gust speed)